Find Starlink 37906

NORAD ID: 100476 Int'l Des: 2026-196 Owner: SPXS Country: US Constellation: starlink operational

Current View

Loading 3D Globe...

About Starlink 37906

Starlink 37906 (NORAD 100476) is a starlink constellation satellite launched Aug 25, 2026 by SPXS of US. with a mass of 575.00 kg.

Upcoming Passes

Passes for default location (London). Set your location on the main map for personalized predictions.

Altitude History

Loading altitude history...

Two-Line Element Set

1 A0476U 26196D 26254.92983471 .00323321 00000-0 16498-2 0 9997
2 A0476 53.1567 284.4151 0001149 111.3074 248.8071 15.79942694 4003
Epoch: Sep 11, 2026 • Age: 208 hours

Current Status

Altitude 313.5 km
Apogee / Perigee N/A
Velocity 7.72 km/s
Sub-Earth Point 25.46°N, 177.48°W
Launch Date Aug 25, 2026
Age 26 days
Type internet

Technical Details

Classification Payload
Mass 575.00 kg
Dry Mass 530.00 kg
Length 0.30 m
Span 29.00 m
Shape ? Box + pan
Manufacturer SPXS
Bus Type Starlink V2MO
Phase Status In Orbit
Owner/State SPXS/US

Most Searched